AirNav   Bose Proflight Series 2 Wireless Aviation Headset
 
 827 users online  

1S2 Darrington Municipal Airport
Darrington, Washington, USA

GOING TO DARRINGTON?


FAA INFORMATION EFFECTIVE 07 NOVEMBER 2019

Location

FAA Identifier: 1S2
Lat/Long: 48-15-31.0050N 121-36-36.7330W
48-15.516750N 121-36.612217W
48.2586125,-121.6102036
(estimated)
Elevation: 553 ft. / 169 m (estimated)
Variation: 21E (1985)
Time zone: UTC -8 (UTC -7 during Daylight Saving Time)
Zip code: 98241

Airport Operations

Airport use: Open to the public
Activation date: 01/1948
Control tower: no
ARTCC: SEATTLE CENTER
FSS: SEATTLE FLIGHT SERVICE STATION
NOTAMs facility: SEA (NOTAM-D service available)
Attendance: UNATNDD
Wind indicator: lighted
Segmented circle: no
Lights: ACTVT MIRL RY 10/28 BY CONTACTING AIRPORT MANAGER.
Beacon: white-green (lighted land airport)
Operates sunset to sunrise.

Airport Communications

CTAF: 122.9

Nearby radio navigation aids

VOR radial/distance  VOR name  Freq  Var
PAEr033/33.6PAINE VOR/DME110.6020E

 
NDB name  Hdg/Dist  Freq  Var  ID
SKAGIT/BAY VIEW095/34.624016EBVS -... ...- ...

Airport Services

Parking: tiedowns
Airframe service: NONE
Powerplant service: NONE
Bottled oxygen: NONE
Bulk oxygen: NONE

Runway Information

Runway 10/28

Dimensions: 2491 x 40 ft. / 759 x 12 m
Surface: asphalt, in good condition
Runway edge lights: medium intensity
MIRL RY 10/28 OTS INDEFLY.
RUNWAY 10  RUNWAY 28
Latitude: 48-15.588983N48-15.444517N
Longitude: 121-36.899333W121-36.325117W
Elevation: 544.0 ft.553.0 ft.
Traffic pattern: leftleft
Runway heading: 090 magnetic, 111 true270 magnetic, 291 true
Markings: basic, in good conditionbasic, in good condition
Obstructions: 4 ft. fence, 200 ft. from runway, 29 ft. right of centerline
FENCE AT 40', 104' RIGHT.
15 ft. road, 305 ft. from runway, 126 ft. left of centerline, 7:1 slope to clear

Airport Ownership and Management from official FAA records

Ownership: Publicly-owned
Owner: TOWN OF DARRINGTON
P.O. BOX 397
DARRINGTON, WA 98241
Phone 360-436-1131
Manager: JIM HALE
P.O. BOX 312
DARRINGTON, WA 98241
Phone 360-436-1454
MANAGER'S CELL PHONE NUMBER IS 360-631-1928.

Airport Operational Statistics

Aircraft based on the field: 11
Single engine airplanes: 5
Helicopters: 4
Gliders airplanes: 2
    
Aircraft operations: avg 44/week *
67% local general aviation
33% transient general aviation
* for 12-month period ending 31 December 2016

Additional Remarks

CLSD WHEN SNOW ON RY.
TURB ON HOT DAYS LNDG W IN TRSN EAST APPROACH.
TWYS MARKED WITH BLUE REFLECTORS.
FOR CD CTC SEATTLE ARTCC AT 253-351-3694.

Instrument Procedures

There are no published instrument procedures at 1S2.

Some nearby airports with instrument procedures:

KAWO - Arlington Municipal Airport (23 nm W)
S43 - Harvey Field Airport (29 nm SW)
KPAE - Snohomish County Airport (Paine Field) (34 nm SW)
KBVS - Skagit Regional Airport (35 nm W)
KNUW - Whidbey Island Naval Air Station (Ault Field) (42 nm W)
 
Loc | Ops | Rwys | IFR | FBO | Links
Com | Nav | Svcs | Stats | Notes
Area around 1S2 (Darrington Municipal Airport)
 
Road maps at: MapQuest Bing Google
 
Aerial photo
WARNING: Photo may not be current or correct
Aerial photo of 1S2 (Darrington Municipal Airport)
Do you have a better or more recent aerial photo of Darrington Municipal Airport that you would like to share? If so, please send us your photo.

 
Sectional chart

 
Airport distance calculator
Flying to Darrington Municipal Airport? Find the distance to fly.

From to 1S2

Sunrise and sunset
Times for 13-Nov-2019
 Local
(UTC-8)
 Zulu
(UTC)
Morning civil twilight06:3814:38
Sunrise07:1215:12
Sunset16:3000:30
Evening civil twilight17:0401:04

Current date and time
Zulu (UTC)  14-Nov-2019 00:43:15
Local (UTC-8)  13-Nov-2019 16:43:15
 
METAR
KAWO 
23nm W 
132356Z AUTO 30007KT 10SM 11/09 A3008 RMK AO2 SLP191 6//// T01060094 10128 20078 56013 PNO $
KPAE 
34nm SW 
140018Z 36005KT 4SM BR FEW002 BKN005 09/08 A3008 RMK AO2 T00940083
KBVS 
34nm W 
140015Z AUTO 31006KT 10SM CLR 10/09 A3009 RMK A01
KNUW 
42nm W 
132356Z 33006KT 10SM FEW015 SCT035 SCT150 BKN250 12/08 A3013 RMK AO2 SLP202 T01170078 10133 20117 56012 $
TAF
KPAE 
34nm SW 
132000Z 1320/1418 35004KT P6SM SCT003 BKN200 TEMPO 1320/1322 BKN003 BKN200 FM132200 36005KT P6SM BKN200 FM140100 06003KT P6SM BKN200 FM141200 12003KT P6SM BKN200
KNUW 
42nm W 
1323/1423 32006KT 9999 FEW020 SCT035 SCT150 BKN250 QNH3007INS FM140500 VRB06KT 9999 SCT010 SCT120 BKN250 QNH3000INS TEMPO 1409/1415 13006KT 8000 BR BCFG SCT005 BKN250 FM142000 14010KT 9999 VCSH SCT035 BKN140 OVC250 QNH2996INS T12/1323Z T06/1414Z FS30028
NOTAMs
Click for the latest NOTAMs
NOTAMs are issued by the DoD/FAA and will open in a separate window not controlled by AirNav.

 

 
 

Would you like to see your business listed on this page?

 If your business provides an interesting product or service to pilots, flight crews, aircraft, or users of the Darrington Municipal Airport, you should consider listing it here.  To start the listing process, click on the button below
 
Add a business
 

Other Pages about Darrington Municipal Airport

Update a link
 
Copyright © AirNav, LLC. All rights reserved. Privacy Policy  Contact